Simultaneous Nadir Overpasses (SNOs) Predictions

Prediction of SNOs between AURA and NPP Satellite Orbit:

Table of predicted SNOs for the next 14.0 days since TLE Epoch: 6/15/2013
Index Date (AURA) Time (AURA) Lat,Lon (AURA) SZA (AURA ) Date (NPP) Time (NPP) Lat,Lon (NPP) SZA (NPP ) Distance(km) Time Diff (sec)
1 06/17/2013 12:15:04 79.40,-107.68 69.60 06/17/2013 12:15:04 79.39,-107.79 69.62 2.33 0
2 06/17/2013 13:02:06 -81.62, 114.03 118.55 06/17/2013 13:03:19 -80.87, 112.87 118.88 85.72 73
3 06/20/2013 03:42:07 -79.33,-159.87 110.33 06/20/2013 03:41:16 -79.34,-159.74 110.31 2.82 51
4 06/20/2013 04:31:28 79.52, 8.99 69.41 06/20/2013 04:31:55 79.52, 8.98 69.40 0.30 27
5 06/22/2013 19:58:33 -79.37, -43.78 110.34 06/22/2013 19:58:10 -79.37, -43.77 110.32 0.19 23
6 06/22/2013
